GW4629 Weather Reports


Display with metric or nautical units.
time (UTC)temp
F
wind
direction
speed
MPH
gust
MPH
rain 1hr
in
rain 24hr
in
rain mn
in
humidity
%
barometer
mb
20260510105734 38 4 1.0 1.0 0.00 0.01 0.01 99 1027.0
20260510105229 38 63 1.0 2.0 0.00 0.01 0.01 99 1027.2
20260510104726 38 63 1.0 2.0 0.00 0.01 0.01 99 1027.2
20260510104224 38 92 1.0 2.0 0.00 0.01 0.01 99 1027.1
20260510103720 38 92 1.0 2.0 0.00 0.01 0.01 99 1027.1
20260510103217 38 119 2.0 2.0 0.00 0.01 0.01 99 1026.7
20260510102716 38 119 2.0 2.0 0.00 0.01 0.01 99 1026.7
20260510102212 38 157 2.0 2.0 0.00 0.01 0.01 99 1026.8
20260510101710 38 157 2.0 2.0 0.00 0.01 0.01 99 1026.8
20260510101209 37 160 1.0 2.0 0.00 0.01 0.01 99 1026.8
20260510100704 37 160 1.0 2.0 0.00 0.01 0.01 99 1026.8
20260510100202 37 150 0.0 0.0 0.00 0.01 0.01 99 1027.1
20260510095657 37 150 0.0 0.0 0.00 0.01 0.01 99 1027.1
20260510095152 38 146 0.0 0.0 0.00 0.01 0.01 99 1026.8
20260510094651 38 146 0.0 0.0 0.00 0.01 0.01 99 1026.8
20260510094147 39 26 2.0 3.0 0.00 0.01 0.01 99 1026.7
20260510093643 39 26 2.0 3.0 0.00 0.01 0.01 99 1026.7
20260510093141 39 316 3.0 3.0 0.00 0.01 0.01 99 1027.0
20260510092637 39 316 3.0 3.0 0.00 0.01 0.01 99 1027.0
20260510092132 39 127 1.0 1.0 0.00 0.01 0.01 99 1027.0
20260510091629 39 127 1.0 1.0 0.00 0.01 0.01 99 1027.0
20260510091125 39 158 0.0 0.0 0.00 0.01 0.01 99 1027.0
20260510090622 39 158 0.0 0.0 0.00 0.01 0.01 99 1027.0
20260510090118 39 205 1.0 1.0 0.00 0.01 0.01 99 1027.0
20260510085613 39 205 1.0 1.0 0.00 0.01 0.01 99 1027.0
20260510085109 39 147 0.0 0.0 0.00 0.01 0.01 99 1026.8
20260510084606 39 147 0.0 0.0 0.00 0.01 0.01 99 1026.8
20260510084102 39 75 2.0 2.0 0.00 0.01 0.01 99 1027.0
20260510083559 39 75 2.0 2.0 0.00 0.01 0.01 99 1027.0
20260510083055 39 358 1.0 2.0 0.00 0.01 0.01 99 1026.7
20260510082552 39 358 1.0 2.0 0.00 0.01 0.01 99 1026.7
20260510082048 39 190 2.0 3.0 0.00 0.01 0.01 99 1026.8
20260510081543 39 190 2.0 3.0 0.00 0.01 0.01 99 1026.8
20260510081038 39 145 1.0 2.0 0.00 0.01 0.01 99 1026.5
20260510080538 39 145 1.0 2.0 0.00 0.01 0.01 99 1026.5
20260510080035 39 319 2.0 4.0 0.07 0.01 0.01 99 1026.6
20260510075532 39 319 2.0 4.0 0.07 0.01 0.01 99 1026.6
20260510075029 39 139 3.0 3.0 0.00 0.00 0.00 99 1026.6
20260510074527 39 139 3.0 3.0 0.00 0.00 0.00 99 1026.6
20260510074022 40 47 4.0 6.0 0.00 0.00 0.00 99 1026.3
20260510073518 40 177 2.0 2.0 0.00 0.00 0.00 99 1026.5
20260510073015 40 177 2.0 2.0 0.00 0.00 0.00 99 1026.5
20260510072512 41 332 7.0 8.0 0.00 0.00 0.00 99 1026.2
20260510072007 41 332 7.0 8.0 0.00 0.00 0.00 99 1026.2
20260510071504 41 341 12.0 15.0 0.00 0.00 0.00 99 1025.7
20260510071002 41 341 12.0 15.0 0.00 0.00 0.00 99 1025.7
20260510070454 41 258 6.0 7.0 0.00 0.00 0.00 99 1026.2
20260510065949 41 258 6.0 7.0 0.00 0.00 0.00 99 1026.2
20260510065447 41 296 3.0 4.0 0.00 0.00 0.00 99 1025.8
20260510064942 41 296 3.0 4.0 0.00 0.00 0.00 99 1025.8
20260510064440 41 357 9.0 13.0 0.00 0.00 0.00 99 1025.2
20260510063937 41 357 9.0 13.0 0.00 0.00 0.00 99 1025.2
20260510063432 42 329 4.0 6.0 0.00 0.00 0.00 99 1025.6
20260510062930 42 329 4.0 6.0 0.00 0.00 0.00 99 1025.6
20260510062430 42 343 3.0 4.0 0.00 0.00 0.00 99 1025.8
20260510061926 42 343 3.0 4.0 0.00 0.00 0.00 99 1025.8
20260510061423 42 341 6.0 8.0 0.00 0.00 0.00 99 1025.7
20260510060919 42 341 6.0 8.0 0.00 0.00 0.00 99 1025.7
20260510060416 42 35 5.0 6.0 0.00 0.00 0.00 99 1025.6
20260510055913 42 35 5.0 6.0 0.00 0.00 0.00 99 1025.6
20260510055408 42 54 3.0 4.0 0.00 0.00 0.00 99 1025.5
20260510054906 42 54 3.0 4.0 0.00 0.00 0.00 99 1025.5
20260510054401 42 78 4.0 6.0 0.00 0.00 0.00 99 1026.0
20260510053856 42 78 4.0 6.0 0.00 0.00 0.00 99 1026.0
20260510053352 43 45 1.0 3.0 0.00 0.00 0.00 99 1026.0
20260510052849 43 45 1.0 3.0 0.00 0.00 0.00 99 1026.0
20260510052345 43 33 4.0 4.0 0.00 0.00 0.00 99 1025.7
20260510051841 43 33 4.0 4.0 0.00 0.00 0.00 99 1025.7
20260510051338 43 52 3.0 4.0 0.00 0.00 0.00 99 1026.1
20260510050835 43 52 3.0 4.0 0.00 0.00 0.00 99 1026.1
20260510050331 43 94 1.0 2.0 0.00 0.00 0.00 99 1026.0
20260510045829 43 94 1.0 2.0 0.00 0.00 0.00 99 1026.0
20260510045325 43 154 0.0 1.0 0.00 0.00 0.00 99 1026.1
20260510044822 43 154 0.0 1.0 0.00 0.00 0.00 99 1026.1
20260510044319 42 220 2.0 2.0 0.00 0.00 0.00 99 1025.8
20260510043816 42 220 2.0 2.0 0.00 0.00 0.00 99 1025.8
20260510043312 42 87 0.0 1.0 0.00 0.00 0.00 99 1026.1
20260510042809 42 87 0.0 1.0 0.00 0.00 0.00 99 1026.1
20260510042307 42 345 4.0 4.0 0.00 0.00 0.00 99 1026.5
20260510041801 42 345 4.0 4.0 0.00 0.00 0.00 99 1026.5
20260510041300 42 326 3.0 4.0 0.00 0.00 0.00 99 1026.2
20260510040757 42 326 3.0 4.0 0.00 0.00 0.00 99 1026.2
20260510040253 42 101 1.0 1.0 0.00 0.00 0.00 99 1025.8
20260510035749 42 101 1.0 1.0 0.00 0.00 0.00 99 1025.8
20260510035244 42 325 4.0 4.0 0.00 0.00 0.00 99 1025.7
20260510034740 42 325 4.0 4.0 0.00 0.00 0.00 99 1025.7
20260510034238 42 301 2.0 2.0 0.00 0.00 0.00 99 1025.5
20260510033734 42 301 2.0 2.0 0.00 0.00 0.00 99 1025.5
20260510033232 42 307 1.0 2.0 0.00 0.00 0.00 99 1025.6
20260510032728 42 307 1.0 2.0 0.00 0.00 0.00 99 1025.6
20260510032224 42 256 0.0 1.0 0.00 0.00 0.00 99 1025.6
20260510031719 42 256 0.0 1.0 0.00 0.00 0.00 99 1025.6
20260510031216 42 115 3.0 3.0 0.00 0.00 0.00 99 1025.1
20260510030715 42 115 3.0 3.0 0.00 0.00 0.00 99 1025.1
20260510030213 42 104 0.0 1.0 0.00 0.00 0.00 99 1025.1
20260510025710 42 104 0.0 1.0 0.00 0.00 0.00 99 1025.1
20260510025207 41 14 2.0 3.0 0.00 0.00 0.00 99 1024.7
20260510024704 41 14 2.0 3.0 0.00 0.00 0.00 99 1024.7
20260510024200 41 131 3.0 3.0 0.00 0.00 0.00 99 1024.1
20260510023656 41 131 3.0 3.0 0.00 0.00 0.00 99 1024.1
20260510023154 41 259 4.0 6.0 0.00 0.00 0.00 99 1024.1
20260510022649 41 259 4.0 6.0 0.00 0.00 0.00 99 1024.1
20260510022144 41 54 4.0 4.0 0.00 0.00 0.00 99 1024.1
20260510021640 41 54 4.0 4.0 0.00 0.00 0.00 99 1024.1
20260510021138 41 138 3.0 6.0 0.00 0.00 0.00 99 1024.2
20260510020638 41 138 3.0 6.0 0.00 0.00 0.00 99 1024.2
20260510020133 41 261 4.0 7.0 0.00 0.00 0.00 99 1023.7
20260510015629 41 261 4.0 7.0 0.00 0.00 0.00 99 1023.7
20260510015126 42 181 6.0 8.0 0.00 0.00 0.00 99 1023.4
20260510014621 42 181 6.0 8.0 0.00 0.00 0.00 99 1023.4
20260510014119 42 290 7.0 9.0 0.00 0.00 0.00 99 1023.2
20260510013619 42 290 7.0 9.0 0.00 0.00 0.00 99 1023.2
20260510013115 42 242 7.0 9.0 0.00 0.00 0.00 99 1023.2
20260510012614 42 242 7.0 9.0 0.00 0.00 0.00 99 1023.2
20260510012111 43 197 7.0 8.0 0.00 0.00 0.00 99 1022.9
20260510011610 43 197 7.0 8.0 0.00 0.00 0.00 99 1022.9
20260510011106 43 131 6.0 10.0 0.00 0.00 0.00 99 1022.9
20260510010603 43 131 6.0 10.0 0.00 0.00 0.00 99 1022.9
20260510010100 44 335 4.0 6.0 0.00 0.00 0.00 99 1022.6
20260510005555 44 335 4.0 6.0 0.00 0.00 0.00 99 1022.6
20260510005054 44 251 4.0 6.0 0.00 0.00 0.00 99 1022.4
20260510004551 44 251 4.0 6.0 0.00 0.00 0.00 99 1022.4
20260510004049 45 299 6.0 6.0 0.00 0.00 0.00 99 1022.6
20260510003545 45 299 6.0 6.0 0.00 0.00 0.00 99 1022.6
20260510003041 45 272 9.0 11.0 0.00 0.00 0.00 99 1021.9
20260510002536 45 272 9.0 11.0 0.00 0.00 0.00 99 1021.9
20260510002034 45 319 5.0 7.0 0.00 0.00 0.00 99 1021.6
20260510001531 45 319 5.0 7.0 0.00 0.00 0.00 99 1021.6
20260510001029 46 280 6.0 7.0 0.00 0.00 0.00 99 1021.3
20260510000524 46 280 6.0 7.0 0.00 0.00 0.00 99 1021.3
20260510000021 46 172 8.0 11.0 0.00 0.00 0.00 99 1020.7
20260509235518 46 172 8.0 11.0 0.00 0.00 0.00 99 1020.7
20260509235015 47 234 11.0 19.0 0.00 0.00 0.00 99 1019.9
20260509234511 47 234 11.0 19.0 0.00 0.00 0.00 99 1019.9
20260509234009 49 14 9.0 13.0 0.00 0.00 0.00 99 1019.6
20260509233501 49 14 9.0 13.0 0.00 0.00 0.00 99 1019.6
20260509232957 52 50 17.0 22.0 0.00 0.00 0.00 99 1018.7
20260509232455 52 50 17.0 22.0 0.00 0.00 0.00 99 1018.7
20260509231950 63 155 2.0 3.0 0.00 0.00 0.00 99 1019.6
20260509231447 63 155 2.0 3.0 0.00 0.00 0.00 99 1019.6
20260509230945 64 69 9.0 10.0 0.00 0.00 0.00 99 1018.8
20260509230442 64 69 9.0 10.0 0.00 0.00 0.00 99 1018.8
20260509225938 64 126 3.0 7.0 0.00 0.00 0.00 99 1018.8
20260509225435 64 126 3.0 7.0 0.00 0.00 0.00 99 1018.8
20260509224931 63 150 11.0 16.0 0.00 0.00 0.00 99 1018.9
20260509224431 63 144 9.0 13.0 0.00 0.00 0.00 99 1018.7
20260509223929 63 144 9.0 13.0 0.00 0.00 0.00 99 1018.7
20260509223425 66 88 14.0 18.0 0.00 0.00 0.00 99 1018.7
20260509222923 66 88 14.0 18.0 0.00 0.00 0.00 99 1018.7
20260509222418 65 104 15.0 21.0 0.00 0.00 0.00 99 1018.4
20260509221914 65 104 15.0 21.0 0.00 0.00 0.00 99 1018.4
20260509221411 65 85 8.0 10.0 0.00 0.00 0.00 99 1018.6
20260509220906 65 85 8.0 10.0 0.00 0.00 0.00 99 1018.6
20260509220357 65 67 9.0 11.0 0.00 0.00 0.00 99 1018.8
20260509215853 65 67 9.0 11.0 0.00 0.00 0.00 99 1018.8
20260509215349 66 95 11.0 15.0 0.00 0.00 0.00 99 1019.1
20260509214847 66 95 11.0 15.0 0.00 0.00 0.00 99 1019.1
20260509214344 64 54 12.0 16.0 0.00 0.00 0.00 99 1018.8
20260509213841 64 54 12.0 16.0 0.00 0.00 0.00 99 1018.8
20260509213336 65 45 13.0 17.0 0.00 0.00 0.00 99 1018.7
20260509212834 65 45 13.0 17.0 0.00 0.00 0.00 99 1018.7
20260509212331 65 52 8.0 11.0 0.00 0.00 0.00 99 1018.9
20260509211827 65 52 8.0 11.0 0.00 0.00 0.00 99 1018.9
20260509211323 64 74 7.0 10.0 0.00 0.00 0.00 99 1018.6
20260509210820 64 74 7.0 10.0 0.00 0.00 0.00 99 1018.6
20260509210317 65 312 2.0 3.0 0.00 0.00 0.00 99 1018.9
20260509205818 65 312 2.0 3.0 0.00 0.00 0.00 99 1018.9
20260509205312 65 77 9.0 13.0 0.00 0.00 0.00 99 1018.9
20260509204808 65 77 9.0 13.0 0.00 0.00 0.00 99 1018.9
20260509204304 66 103 17.0 19.0 0.00 0.00 0.00 99 1018.9
20260509203800 66 103 17.0 19.0 0.00 0.00 0.00 99 1018.9
20260509203253 65 12 7.0 13.0 0.00 0.00 0.00 99 1018.6
20260509202748 65 12 7.0 13.0 0.00 0.00 0.00 99 1018.6
20260509202245 64 93 8.0 14.0 0.00 0.00 0.00 99 1018.9
20260509201744 64 93 8.0 14.0 0.00 0.00 0.00 99 1018.9
20260509201241 62 137 10.0 15.0 0.00 0.00 0.00 99 1019.2
20260509200737 62 137 10.0 15.0 0.00 0.00 0.00 99 1019.2
20260509200233 64 73 11.0 16.0 0.00 0.00 0.00 99 1018.9
20260509195729 64 73 11.0 16.0 0.00 0.00 0.00 99 1018.9
20260509195224 68 43 5.0 9.0 0.00 0.00 0.00 99 1018.9
20260509194719 68 43 5.0 9.0 0.00 0.00 0.00 99 1018.9
20260509194215 65 174 7.0 9.0 0.00 0.00 0.00 99 1018.9
20260509193712 65 174 7.0 9.0 0.00 0.00 0.00 99 1018.9
20260509193212 66 298 4.0 6.0 0.00 0.00 0.00 99 1019.1
20260509192708 66 298 4.0 6.0 0.00 0.00 0.00 99 1019.1
20260509192204 64 64 8.0 11.0 0.00 0.00 0.00 99 1019.4
20260509191659 64 64 8.0 11.0 0.00 0.00 0.00 99 1019.4
20260509191155 62 116 3.0 4.0 0.00 0.00 0.00 99 1019.2
20260509190652 62 116 3.0 4.0 0.00 0.00 0.00 99 1019.2
20260509190149 64 342 4.0 7.0 0.00 0.00 0.00 99 1019.1
20260509185647 64 342 4.0 7.0 0.00 0.00 0.00 99 1019.1
20260509185143 64 145 4.0 6.0 0.00 0.00 0.00 99 1019.2
20260509184641 64 145 4.0 6.0 0.00 0.00 0.00 99 1019.2
20260509184137 64 113 8.0 13.0 0.00 0.00 0.00 99 1019.4
20260509183634 64 113 8.0 13.0 0.00 0.00 0.00 99 1019.4
20260509183129 61 294 3.0 3.0 0.00 0.00 0.00 99 1019.3
20260509182625 61 294 3.0 3.0 0.00 0.00 0.00 99 1019.3
20260509182122 64 126 9.0 10.0 0.00 0.00 0.00 99 1019.6
20260509181620 64 126 9.0 10.0 0.00 0.00 0.00 99 1019.6
20260509181118 64 199 5.0 8.0 0.00 0.00 0.00 99 1019.6
20260509180614 64 199 5.0 8.0 0.00 0.00 0.00 99 1019.6
20260509180111 62 44 12.0 14.0 0.00 0.00 0.00 99 1019.6
20260509175606 62 44 12.0 14.0 0.00 0.00 0.00 99 1019.6
20260509175103 62 122 14.0 17.0 0.00 0.00 0.00 99 1019.7
20260509174554 62 122 14.0 17.0 0.00 0.00 0.00 99 1019.7
20260509174049 60 197 3.0 6.0 0.00 0.00 0.00 99 1019.4
20260509173550 60 197 3.0 6.0 0.00 0.00 0.00 99 1019.4
20260509173046 60 107 7.0 9.0 0.00 0.00 0.00 99 1019.6
20260509172544 60 107 7.0 9.0 0.00 0.00 0.00 99 1019.6
20260509172039 60 76 9.0 14.0 0.00 0.00 0.00 99 1019.4
20260509171535 60 76 9.0 14.0 0.00 0.00 0.00 99 1019.4
20260509171032 59 94 14.0 15.0 0.00 0.00 0.00 99 1019.2
20260509170527 59 94 14.0 15.0 0.00 0.00 0.00 99 1019.2
20260509170023 59 106 15.0 18.0 0.00 0.00 0.00 99 1019.2
20260509165522 59 106 15.0 18.0 0.00 0.00 0.00 99 1019.2
20260509165018 60 139 8.0 13.0 0.00 0.00 0.00 99 1019.1
20260509164514 60 139 8.0 13.0 0.00 0.00 0.00 99 1019.1
20260509164009 59 117 16.0 21.0 0.00 0.00 0.00 99 1019.1
20260509163508 59 117 16.0 21.0 0.00 0.00 0.00 99 1019.1
20260509163002 58 179 22.0 24.0 0.00 0.00 0.00 99 1018.9
20260509162500 58 179 22.0 24.0 0.00 0.00 0.00 99 1018.9
20260509161956 59 134 16.0 17.0 0.00 0.00 0.00 99 1019.1
20260509161453 59 134 16.0 17.0 0.00 0.00 0.00 99 1019.1
20260509160947 59 161 15.0 19.0 0.00 0.00 0.00 99 1019.2
20260509160444 59 161 15.0 19.0 0.00 0.00 0.00 99 1019.2
20260509155944 59 100 6.0 8.0 0.00 0.00 0.00 99 1019.1
20260509155441 59 100 6.0 8.0 0.00 0.00 0.00 99 1019.1
20260509154937 57 95 8.0 10.0 0.00 0.00 0.00 99 1019.1
20260509154434 57 95 8.0 10.0 0.00 0.00 0.00 99 1019.1
20260509153931 57 107 8.0 10.0 0.00 0.00 0.00 99 1019.1
20260509153428 57 107 8.0 10.0 0.00 0.00 0.00 99 1019.1
20260509152925 57 33 7.0 8.0 0.00 0.00 0.00 99 1018.9
20260509152421 57 33 7.0 8.0 0.00 0.00 0.00 99 1018.9
20260509151918 57 106 15.0 19.0 0.00 0.00 0.00 99 1018.7
20260509151414 57 106 15.0 19.0 0.00 0.00 0.00 99 1018.7
20260509150912 57 93 5.0 7.0 0.00 0.00 0.00 99 1018.9
20260509150409 57 93 5.0 7.0 0.00 0.00 0.00 99 1018.9
20260509145908 57 47 3.0 3.0 0.00 0.00 0.00 99 1018.8
20260509145407 57 47 3.0 3.0 0.00 0.00 0.00 99 1018.8
20260509144903 56 95 4.0 6.0 0.00 0.00 0.00 99 1018.9
20260509144400 56 95 4.0 6.0 0.00 0.00 0.00 99 1018.9
20260509143857 55 144 9.0 10.0 0.00 0.00 0.00 99 1018.9
20260509143355 55 144 9.0 10.0 0.00 0.00 0.00 99 1018.9
20260509142851 55 140 1.0 2.0 0.00 0.00 0.00 99 1018.9
20260509142347 55 140 1.0 2.0 0.00 0.00 0.00 99 1018.9
20260509141843 54 146 0.0 1.0 0.00 0.00 0.00 99 1018.7
20260509141340 55 142 2.0 2.0 0.00 0.00 0.00 99 1018.8
20260509140836 55 142 2.0 2.0 0.00 0.00 0.00 99 1018.8
20260509140334 55 91 1.0 2.0 0.00 0.00 0.00 99 1018.6
20260509135832 55 91 1.0 2.0 0.00 0.00 0.00 99 1018.6
20260509135329 55 72 0.0 0.0 0.00 0.00 0.00 99 1018.7
20260509134826 55 72 0.0 0.0 0.00 0.00 0.00 99 1018.7
20260509134323 53 85 1.0 2.0 0.00 0.00 0.00 99 1018.8
20260509133820 53 85 1.0 2.0 0.00 0.00 0.00 99 1018.8
20260509133316 52 125 2.0 2.0 0.00 0.00 0.00 99 1018.7
20260509132815 52 125 2.0 2.0 0.00 0.00 0.00 99 1018.7
20260509132314 51 91 3.0 3.0 0.00 0.00 0.00 99 1018.6
20260509131810 51 91 3.0 3.0 0.00 0.00 0.00 99 1018.6
20260509131307 51 147 3.0 4.0 0.00 0.00 0.00 99 1018.6
20260509130803 51 147 3.0 4.0 0.00 0.00 0.00 99 1018.6
20260509130259 51 94 7.0 9.0 0.00 0.00 0.00 99 1018.4
20260509125756 51 94 7.0 9.0 0.00 0.00 0.00 99 1018.4
20260509125252 50 92 2.0 2.0 0.00 0.00 0.00 99 1018.4
20260509124749 50 92 2.0 2.0 0.00 0.00 0.00 99 1018.4
20260509124245 51 91 4.0 4.0 0.00 0.00 0.00 99 1018.2
20260509123744 51 91 4.0 4.0 0.00 0.00 0.00 99 1018.2
20260509123241 50 149 1.0 1.0 0.00 0.00 0.00 99 1018.1
20260509122736 50 149 1.0 1.0 0.00 0.00 0.00 99 1018.1
20260509122233 50 77 2.0 3.0 0.00 0.00 0.00 99 1018.1
20260509121730 50 77 2.0 3.0 0.00 0.00 0.00 99 1018.1
20260509121227 50 75 5.0 6.0 0.00 0.00 0.00 99 1017.8
20260509120726 50 75 5.0 6.0 0.00 0.00 0.00 99 1017.8
20260509120223 51 101 6.0 8.0 0.00 0.00 0.00 99 1017.8
20260509115721 51 101 6.0 8.0 0.00 0.00 0.00 99 1017.8
20260509115218 50 80 8.0 9.0 0.00 0.00 0.00 99 1017.7
20260509114716 50 80 8.0 9.0 0.00 0.00 0.00 99 1017.7
20260509114214 51 83 10.0 11.0 0.00 0.00 0.00 99 1017.4
20260509113713 51 83 10.0 11.0 0.00 0.00 0.00 99 1017.4
20260509113210 50 93 9.0 10.0 0.00 0.00 0.00 99 1017.4
20260509112706 50 93 9.0 10.0 0.00 0.00 0.00 99 1017.4
20260509112203 51 65 11.0 13.0 0.00 0.00 0.00 99 1017.3
20260509111700 51 65 11.0 13.0 0.00 0.00 0.00 99 1017.3
20260509111157 52 97 13.0 14.0 0.00 0.00 0.00 99 1017.2
20260509110654 52 97 13.0 14.0 0.00 0.00 0.00 99 1017.2
20260509110151 51 108 10.0 13.0 0.00 0.00 0.00 99 1017.2